Location: *
(34.6903°N, 135.5184°E)
Time: 00:35:34
(UTC+00:00)

Cosmos 1908 Rocket - Pass Details

Date: 22 September 2019
Orbit: 605 x 633 km, 82.5° (Epoch: 13 October)

Event Time Altitude Azimuth Distance (km) Brightness Sun altitude
Rises 19:02:14 0° 353° (N) 2,867 7.1 -21.9°
Reaches altitude 10° 19:04:27 10° 354° (N) 1,960 6.2 -21.4°
Maximum altitude 19:08:47 89° 72° (ENE) 613 3.4 -20.6°
Drops below altitude 10° 19:13:08 10° 174° (S) 1,957 6.0 -19.7°
Sets 19:15:21 0° 175° (S) 2,861 6.9 -19.3°
